| time (UTC) | temp F | wind direction | speed MPH | gust MPH | rain 1hr in | rain 24hr in | rain mn in | humidity % | barometer mb |
| 20260509021446 | 50 | 192 | 1.0 | 2.0 | 0.00 | 0.33 | 0.33 | 99 | 1007.6 |
| 20260509020943 | 49 | 197 | 1.0 | 2.0 | 0.00 | 0.33 | 0.33 | 99 | 1007.5 |
| 20260509020441 | 49 | 182 | 1.0 | 2.0 | 0.00 | 0.33 | 0.33 | 99 | 1007.6 |
| 20260509015938 | 49 | 192 | 1.0 | 1.0 | 0.00 | 0.33 | 0.33 | 99 | 1007.9 |
| 20260509015437 | 49 | 184 | 1.0 | 2.0 | 0.00 | 0.33 | 0.33 | 99 | 1007.7 |
| 20260509014933 | 49 | 191 | 1.0 | 1.0 | 0.00 | 0.33 | 0.33 | 99 | 1007.7 |
| 20260509014430 | 49 | 184 | 2.0 | 2.0 | 0.00 | 0.33 | 0.33 | 99 | 1007.8 |
| 20260509013926 | 49 | 174 | 1.0 | 2.0 | 0.00 | 0.33 | 0.33 | 99 | 1007.6 |
| 20260509013423 | 49 | 181 | 2.0 | 2.0 | 0.00 | 0.33 | 0.33 | 99 | 1007.6 |
| 20260509012919 | 49 | 192 | 2.0 | 2.0 | 0.00 | 0.33 | 0.33 | 99 | 1007.6 |
| 20260509012416 | 49 | 192 | 1.0 | 1.0 | 0.00 | 0.33 | 0.33 | 99 | 1007.8 |
| 20260509011913 | 49 | 182 | 3.0 | 3.0 | 0.00 | 0.33 | 0.33 | 99 | 1007.5 |
| 20260509011410 | 49 | 179 | 1.0 | 2.0 | 0.00 | 0.33 | 0.33 | 99 | 1007.6 |
| 20260509010908 | 49 | 205 | 2.0 | 3.0 | 0.05 | 0.33 | 0.33 | 99 | 1007.7 |
| 20260509010405 | 49 | 175 | 3.0 | 3.0 | 0.05 | 0.33 | 0.33 | 99 | 1007.7 |
| 20260509005902 | 49 | 199 | 0.0 | 0.0 | 0.00 | 0.32 | 0.32 | 99 | 1007.6 |
| 20260509005400 | 49 | 179 | 2.0 | 2.0 | 0.00 | 0.32 | 0.32 | 99 | 1007.8 |
| 20260509004900 | 49 | 190 | 1.0 | 1.0 | 0.07 | 0.32 | 0.32 | 99 | 1007.7 |
| 20260509004357 | 49 | 180 | 5.0 | 6.0 | 0.07 | 0.32 | 0.32 | 99 | 1007.6 |
| 20260509003854 | 49 | 178 | 2.0 | 2.0 | 0.00 | 0.31 | 0.31 | 99 | 1007.5 |
| 20260509003352 | 49 | 197 | 2.0 | 2.0 | 0.05 | 0.31 | 0.31 | 99 | 1007.5 |
| 20260509002849 | 49 | 179 | 1.0 | 2.0 | 0.05 | 0.31 | 0.31 | 99 | 1007.5 |
| 20260509002347 | 49 | 183 | 3.0 | 5.0 | 0.07 | 0.30 | 0.30 | 99 | 1007.7 |
| 20260509001844 | 49 | 200 | 3.0 | 3.0 | 0.07 | 0.30 | 0.30 | 99 | 1007.6 |
| 20260509001340 | 49 | 176 | 2.0 | 2.0 | 0.05 | 0.29 | 0.29 | 99 | 1007.6 |
| 20260509000837 | 49 | 186 | 2.0 | 2.0 | 0.05 | 0.29 | 0.29 | 99 | 1007.6 |
| 20260509000335 | 49 | 187 | 1.0 | 2.0 | 0.07 | 0.28 | 0.28 | 99 | 1007.8 |
| 20260508235831 | 49 | 205 | 2.0 | 2.0 | 0.07 | 0.28 | 0.28 | 99 | 1008.0 |
| 20260508235328 | 49 | 199 | 0.0 | 0.0 | 0.05 | 0.27 | 0.27 | 99 | 1007.9 |
| 20260508234825 | 49 | 208 | 1.0 | 2.0 | 0.05 | 0.27 | 0.27 | 99 | 1007.7 |
| 20260508234321 | 49 | 197 | 0.0 | 0.0 | 0.00 | 0.26 | 0.26 | 99 | 1007.8 |
| 20260508233820 | 49 | 201 | 0.0 | 0.0 | 0.07 | 0.26 | 0.26 | 99 | 1007.6 |
| 20260508233319 | 49 | 195 | 0.0 | 0.0 | 0.14 | 0.26 | 0.26 | 99 | 1007.6 |
| 20260508232815 | 49 | 188 | 0.0 | 1.0 | 0.07 | 0.25 | 0.25 | 99 | 1007.6 |
| 20260508232312 | 49 | 190 | 0.0 | 0.0 | 0.05 | 0.24 | 0.24 | 99 | 1007.5 |
| 20260508231811 | 49 | 200 | 0.0 | 0.0 | 0.12 | 0.24 | 0.24 | 99 | 1007.6 |
| 20260508231306 | 49 | 208 | 0.0 | 0.0 | 0.07 | 0.23 | 0.23 | 99 | 1007.5 |
| 20260508230803 | 49 | 195 | 0.0 | 0.0 | 0.05 | 0.22 | 0.22 | 99 | 1007.6 |
| 20260508230300 | 49 | 174 | 0.0 | 0.0 | 0.05 | 0.22 | 0.22 | 99 | 1007.3 |
| 20260508225757 | 49 | 173 | 0.0 | 0.0 | 0.00 | 0.21 | 0.21 | 99 | 1007.5 |
| 20260508225253 | 49 | 173 | 0.0 | 0.0 | 0.00 | 0.21 | 0.21 | 99 | 1007.6 |
| 20260508224752 | 49 | 163 | 0.0 | 0.0 | 0.12 | 0.21 | 0.21 | 99 | 1007.7 |
| 20260508224249 | 49 | 163 | 0.0 | 0.0 | 0.12 | 0.21 | 0.21 | 99 | 1007.4 |
| 20260508223747 | 49 | 175 | 0.0 | 0.0 | 0.12 | 0.19 | 0.19 | 99 | 1007.5 |
| 20260508223243 | 49 | 175 | 2.0 | 2.0 | 0.19 | 0.19 | 0.19 | 99 | 1007.6 |
| 20260508222741 | 49 | 189 | 2.0 | 2.0 | 0.12 | 0.17 | 0.17 | 99 | 1007.7 |
| 20260508222238 | 49 | 230 | 0.0 | 0.0 | 0.17 | 0.16 | 0.16 | 99 | 1007.9 |
| 20260508221734 | 49 | 273 | 0.0 | 0.0 | 0.12 | 0.15 | 0.15 | 98 | 1007.8 |
| 20260508221230 | 49 | 255 | 0.0 | 0.0 | 0.07 | 0.13 | 0.13 | 98 | 1007.5 |
| 20260508220726 | 49 | 245 | 1.0 | 1.0 | 0.07 | 0.13 | 0.13 | 98 | 1007.6 |
| 20260508220223 | 49 | 181 | 0.0 | 0.0 | 0.07 | 0.12 | 0.12 | 98 | 1007.5 |
| 20260508215720 | 50 | 182 | 0.0 | 0.0 | 0.19 | 0.12 | 0.12 | 98 | 1007.6 |
| 20260508215216 | 50 | 181 | 0.0 | 0.0 | 0.17 | 0.11 | 0.11 | 98 | 1007.4 |
| 20260508214714 | 50 | 181 | 0.0 | 0.0 | 0.05 | 0.09 | 0.09 | 98 | 1007.5 |
| 20260508214211 | 50 | 181 | 0.0 | 0.0 | 0.00 | 0.08 | 0.08 | 97 | 1007.5 |
| 20260508213707 | 50 | 180 | 0.0 | 0.0 | 0.00 | 0.08 | 0.08 | 97 | 1007.0 |
| 20260508213204 | 49 | 180 | 0.0 | 0.0 | 0.00 | 0.08 | 0.08 | 97 | 1007.1 |
| 20260508212700 | 50 | 183 | 0.0 | 0.0 | 0.07 | 0.08 | 0.08 | 97 | 1007.2 |
| 20260508212157 | 50 | 184 | 0.0 | 0.0 | 0.07 | 0.08 | 0.08 | 97 | 1007.2 |
| 20260508211652 | 50 | 183 | 0.0 | 0.0 | 0.05 | 0.07 | 0.07 | 97 | 1007.4 |
| 20260508211148 | 50 | 185 | 2.0 | 2.0 | 0.17 | 0.07 | 0.07 | 96 | 1007.4 |
| 20260508210645 | 50 | 200 | 0.0 | 0.0 | 0.19 | 0.06 | 0.06 | 96 | 1007.9 |
| 20260508210143 | 50 | 231 | 3.0 | 5.0 | 0.07 | 0.04 | 0.04 | 96 | 1007.9 |
| 20260508205640 | 50 | 219 | 0.0 | 0.0 | 0.00 | 0.03 | 0.03 | 95 | 1008.0 |
| 20260508205136 | 50 | 227 | 1.0 | 2.0 | 0.05 | 0.03 | 0.03 | 95 | 1007.8 |
| 20260508204632 | 50 | 214 | 0.0 | 1.0 | 0.05 | 0.03 | 0.03 | 94 | 1008.0 |
| 20260508204128 | 50 | 246 | 3.0 | 3.0 | 0.00 | 0.02 | 0.02 | 94 | 1008.0 |
| 20260508203625 | 50 | 210 | 5.0 | 6.0 | 0.00 | 0.02 | 0.02 | 93 | 1008.1 |
| 20260508203121 | 50 | 221 | 2.0 | 2.0 | 0.07 | 0.02 | 0.02 | 93 | 1008.0 |
| 20260508202617 | 50 | 232 | 1.0 | 2.0 | 0.07 | 0.02 | 0.02 | 93 | 1008.1 |
| 20260508202115 | 50 | 276 | 4.0 | 5.0 | 0.00 | 0.01 | 0.01 | 92 | 1008.5 |
| 20260508201611 | 50 | 252 | 3.0 | 3.0 | 0.00 | 0.01 | 0.01 | 92 | 1008.6 |
| 20260508201108 | 51 | 233 | 3.0 | 5.0 | 0.00 | 0.01 | 0.01 | 91 | 1008.6 |
| 20260508200605 | 51 | 220 | 5.0 | 6.0 | 0.05 | 0.01 | 0.01 | 90 | 1008.5 |
| 20260508200101 | 52 | 259 | 3.0 | 5.0 | 0.05 | 0.01 | 0.01 | 89 | 1008.7 |
| 20260508195557 | 53 | 211 | 4.0 | 7.0 | 0.00 | 0.00 | 0.00 | 85 | 1008.8 |
| 20260508195054 | 53 | 219 | 5.0 | 7.0 | 0.00 | 0.00 | 0.00 | 84 | 1008.9 |
| 20260508194550 | 54 | 209 | 3.0 | 3.0 | 0.00 | 0.00 | 0.00 | 83 | 1008.7 |
| 20260508194048 | 54 | 240 | 3.0 | 5.0 | 0.00 | 0.00 | 0.00 | 81 | 1008.8 |
| 20260508193544 | 54 | 196 | 4.0 | 5.0 | 0.00 | 0.00 | 0.00 | 80 | 1008.7 |
| 20260508193041 | 54 | 267 | 5.0 | 6.0 | 0.00 | 0.00 | 0.00 | 78 | 1008.7 |
| 20260508192538 | 55 | 217 | 5.0 | 6.0 | 0.00 | 0.00 | 0.00 | 77 | 1008.8 |
| 20260508192035 | 55 | 229 | 2.0 | 2.0 | 0.00 | 0.00 | 0.00 | 78 | 1008.7 |
| 20260508191531 | 55 | 248 | 2.0 | 2.0 | 0.00 | 0.00 | 0.00 | 78 | 1008.5 |
| 20260508191028 | 55 | 226 | 4.0 | 5.0 | 0.00 | 0.00 | 0.00 | 78 | 1008.5 |
| 20260508190526 | 55 | 254 | 2.0 | 3.0 | 0.00 | 0.00 | 0.00 | 77 | 1008.6 |
| 20260508190022 | 56 | 221 | 5.0 | 6.0 | 0.00 | 0.00 | 0.00 | 75 | 1008.6 |
| 20260508185519 | 56 | 230 | 3.0 | 3.0 | 0.00 | 0.00 | 0.00 | 76 | 1008.8 |
| 20260508185017 | 56 | 242 | 4.0 | 5.0 | 0.00 | 0.00 | 0.00 | 77 | 1008.7 |
| 20260508184514 | 55 | 261 | 3.0 | 3.0 | 0.00 | 0.00 | 0.00 | 79 | 1008.8 |
| 20260508184011 | 55 | 250 | 7.0 | 9.0 | 0.00 | 0.00 | 0.00 | 77 | 1008.9 |
| 20260508183507 | 54 | 206 | 4.0 | 5.0 | 0.00 | 0.00 | 0.00 | 79 | 1009.2 |
| 20260508183003 | 54 | 232 | 3.0 | 3.0 | 0.00 | 0.00 | 0.00 | 78 | 1009.1 |
| 20260508182500 | 54 | 214 | 6.0 | 8.0 | 0.00 | 0.00 | 0.00 | 78 | 1008.9 |
| 20260508181955 | 54 | 188 | 5.0 | 6.0 | 0.00 | 0.00 | 0.00 | 78 | 1009.3 |
| 20260508181452 | 55 | 189 | 2.0 | 3.0 | 0.00 | 0.00 | 0.00 | 77 | 1009.0 |
| 20260508180949 | 54 | 232 | 2.0 | 2.0 | 0.00 | 0.00 | 0.00 | 80 | 1009.2 |
| 20260508180446 | 53 | 215 | 4.0 | 5.0 | 0.00 | 0.00 | 0.00 | 82 | 1009.3 |
| 20260508175942 | 53 | 232 | 0.0 | 0.0 | 0.00 | 0.00 | 0.00 | 83 | 1009.4 |
| 20260508175438 | 53 | 239 | 7.0 | 9.0 | 0.00 | 0.00 | 0.00 | 82 | 1009.4 |
| 20260508174937 | 53 | 238 | 5.0 | 7.0 | 0.00 | 0.00 | 0.00 | 83 | 1009.4 |
| 20260508174434 | 53 | 216 | 3.0 | 3.0 | 0.00 | 0.00 | 0.00 | 83 | 1009.6 |
| 20260508173930 | 53 | 219 | 3.0 | 3.0 | 0.00 | 0.00 | 0.00 | 82 | 1009.5 |
| 20260508173428 | 53 | 224 | 2.0 | 2.0 | 0.00 | 0.00 | 0.00 | 82 | 1009.7 |
| 20260508172923 | 53 | 210 | 4.0 | 5.0 | 0.00 | 0.00 | 0.00 | 80 | 1009.7 |
| 20260508172421 | 53 | 233 | 3.0 | 5.0 | 0.00 | 0.00 | 0.00 | 80 | 1009.6 |
| 20260508171917 | 53 | 249 | 3.0 | 3.0 | 0.00 | 0.00 | 0.00 | 79 | 1009.8 |
| 20260508171414 | 54 | 224 | 2.0 | 2.0 | 0.00 | 0.00 | 0.00 | 79 | 1009.8 |
| 20260508170910 | 54 | 230 | 5.0 | 6.0 | 0.00 | 0.00 | 0.00 | 76 | 1009.9 |
| 20260508170408 | 54 | 263 | 3.0 | 5.0 | 0.00 | 0.00 | 0.00 | 76 | 1009.9 |
| 20260508165904 | 54 | 230 | 5.0 | 7.0 | 0.00 | 0.00 | 0.00 | 76 | 1009.9 |
| 20260508165402 | 55 | 248 | 7.0 | 9.0 | 0.00 | 0.00 | 0.00 | 74 | 1009.8 |
| 20260508164858 | 55 | 226 | 3.0 | 5.0 | 0.00 | 0.00 | 0.00 | 74 | 1010.0 |
| 20260508164355 | 55 | 255 | 5.0 | 7.0 | 0.00 | 0.00 | 0.00 | 72 | 1009.7 |
| 20260508163852 | 55 | 221 | 2.0 | 2.0 | 0.00 | 0.00 | 0.00 | 73 | 1009.8 |
| 20260508163350 | 55 | 296 | 3.0 | 5.0 | 0.00 | 0.00 | 0.00 | 73 | 1009.9 |
| 20260508162845 | 55 | 273 | 1.0 | 1.0 | 0.00 | 0.00 | 0.00 | 73 | 1009.6 |
| 20260508162343 | 56 | 257 | 4.0 | 6.0 | 0.00 | 0.00 | 0.00 | 71 | 1009.7 |
| 20260508161840 | 56 | 228 | 3.0 | 3.0 | 0.00 | 0.00 | 0.00 | 70 | 1009.9 |
| 20260508161337 | 56 | 318 | 3.0 | 5.0 | 0.00 | 0.00 | 0.00 | 70 | 1009.9 |
| 20260508160834 | 56 | 297 | 6.0 | 7.0 | 0.00 | 0.00 | 0.00 | 70 | 1009.9 |
| 20260508160333 | 56 | 269 | 3.0 | 3.0 | 0.00 | 0.00 | 0.00 | 69 | 1009.7 |
| 20260508155829 | 57 | 223 | 2.0 | 3.0 | 0.00 | 0.00 | 0.00 | 68 | 1009.8 |
| 20260508155326 | 56 | 254 | 3.0 | 3.0 | 0.00 | 0.00 | 0.00 | 71 | 1009.9 |
| 20260508154823 | 56 | 271 | 1.0 | 1.0 | 0.00 | 0.00 | 0.00 | 71 | 1010.0 |
| 20260508154321 | 56 | 235 | 2.0 | 2.0 | 0.00 | 0.00 | 0.00 | 70 | 1010.1 |
| 20260508153817 | 56 | 257 | 8.0 | 10.0 | 0.00 | 0.00 | 0.00 | 69 | 1010.0 |
| 20260508153314 | 56 | 286 | 6.0 | 7.0 | 0.00 | 0.00 | 0.00 | 70 | 1009.8 |
| 20260508152810 | 56 | 245 | 3.0 | 3.0 | 0.00 | 0.00 | 0.00 | 69 | 1009.8 |
| 20260508152307 | 55 | 280 | 7.0 | 8.0 | 0.00 | 0.00 | 0.00 | 70 | 1009.9 |
| 20260508151803 | 56 | 257 | 2.0 | 2.0 | 0.00 | 0.00 | 0.00 | 70 | 1009.6 |
| 20260508151300 | 57 | 272 | 6.0 | 8.0 | 0.00 | 0.00 | 0.00 | 69 | 1009.9 |
| 20260508150756 | 57 | 284 | 3.0 | 3.0 | 0.00 | 0.00 | 0.00 | 68 | 1009.7 |
| 20260508150253 | 57 | 283 | 1.0 | 1.0 | 0.00 | 0.00 | 0.00 | 69 | 1009.8 |
| 20260508145749 | 55 | 221 | 2.0 | 3.0 | 0.00 | 0.00 | 0.00 | 70 | 1009.7 |
| 20260508145246 | 55 | 275 | 4.0 | 5.0 | 0.00 | 0.00 | 0.00 | 70 | 1009.9 |
| 20260508144743 | 54 | 241 | 3.0 | 6.0 | 0.00 | 0.00 | 0.00 | 71 | 1009.8 |
| 20260508144241 | 54 | 234 | 2.0 | 2.0 | 0.00 | 0.00 | 0.00 | 72 | 1009.9 |
| 20260508143738 | 54 | 278 | 7.0 | 8.0 | 0.00 | 0.00 | 0.00 | 70 | 1009.8 |
| 20260508143235 | 54 | 291 | 4.0 | 5.0 | 0.00 | 0.00 | 0.00 | 71 | 1009.7 |
| 20260508142731 | 54 | 293 | 6.0 | 9.0 | 0.00 | 0.00 | 0.00 | 71 | 1009.7 |
| 20260508142228 | 54 | 282 | 5.0 | 6.0 | 0.00 | 0.00 | 0.00 | 71 | 1010.0 |
| 20260508141725 | 55 | 281 | 3.0 | 3.0 | 0.00 | 0.00 | 0.00 | 72 | 1009.9 |
| 20260508141222 | 54 | 204 | 6.0 | 7.0 | 0.00 | 0.00 | 0.00 | 71 | 1009.9 |
| 20260508140719 | 53 | 297 | 5.0 | 7.0 | 0.00 | 0.00 | 0.00 | 71 | 1009.9 |
| 20260508140216 | 53 | 307 | 4.0 | 6.0 | 0.00 | 0.00 | 0.00 | 71 | 1009.9 |
| 20260508135712 | 53 | 225 | 3.0 | 3.0 | 0.00 | 0.00 | 0.00 | 71 | 1010.0 |
| 20260508135208 | 54 | 250 | 6.0 | 7.0 | 0.00 | 0.00 | 0.00 | 71 | 1010.0 |
| 20260508134704 | 53 | 253 | 2.0 | 2.0 | 0.00 | 0.00 | 0.00 | 72 | 1010.1 |
| 20260508134201 | 52 | 254 | 4.0 | 6.0 | 0.00 | 0.00 | 0.00 | 73 | 1010.3 |
| 20260508133658 | 53 | 291 | 3.0 | 5.0 | 0.00 | 0.00 | 0.00 | 72 | 1010.2 |
| 20260508133155 | 52 | 292 | 3.0 | 3.0 | 0.00 | 0.00 | 0.00 | 74 | 1010.3 |
| 20260508132653 | 51 | 266 | 0.0 | 1.0 | 0.00 | 0.00 | 0.00 | 74 | 1010.2 |
| 20260508132150 | 51 | 237 | 2.0 | 2.0 | 0.00 | 0.00 | 0.00 | 73 | 1010.4 |
| 20260508131645 | 51 | 257 | 7.0 | 8.0 | 0.00 | 0.00 | 0.00 | 72 | 1010.3 |
| 20260508131142 | 51 | 221 | 3.0 | 3.0 | 0.00 | 0.00 | 0.00 | 74 | 1010.2 |
| 20260508130639 | 51 | 280 | 3.0 | 3.0 | 0.00 | 0.00 | 0.00 | 74 | 1010.2 |
| 20260508130136 | 51 | 215 | 8.0 | 10.0 | 0.00 | 0.00 | 0.00 | 74 | 1010.5 |
| 20260508125631 | 51 | 249 | 3.0 | 5.0 | 0.00 | 0.00 | 0.00 | 74 | 1010.4 |
| 20260508125129 | 50 | 250 | 4.0 | 5.0 | 0.00 | 0.00 | 0.00 | 73 | 1010.3 |
| 20260508124627 | 50 | 252 | 3.0 | 5.0 | 0.00 | 0.00 | 0.00 | 74 | 1010.4 |
| 20260508124124 | 50 | 242 | 3.0 | 3.0 | 0.00 | 0.00 | 0.00 | 73 | 1010.5 |
| 20260508123622 | 50 | 223 | 5.0 | 6.0 | 0.00 | 0.00 | 0.00 | 73 | 1010.3 |
| 20260508123119 | 50 | 225 | 3.0 | 3.0 | 0.00 | 0.00 | 0.00 | 73 | 1010.2 |
| 20260508122615 | 50 | 218 | 3.0 | 5.0 | 0.00 | 0.00 | 0.00 | 73 | 1010.1 |
| 20260508122112 | 49 | 257 | 3.0 | 3.0 | 0.00 | 0.00 | 0.00 | 75 | 1010.1 |
| 20260508121611 | 49 | 231 | 2.0 | 5.0 | 0.00 | 0.00 | 0.00 | 78 | 1010.3 |
| 20260508121108 | 48 | 244 | 2.0 | 2.0 | 0.00 | 0.00 | 0.00 | 80 | 1010.2 |
| 20260508120605 | 48 | 236 | 2.0 | 2.0 | 0.00 | 0.00 | 0.00 | 82 | 1010.0 |
| 20260508120104 | 47 | 211 | 1.0 | 1.0 | 0.00 | 0.00 | 0.00 | 83 | 1009.9 |
| 20260508115601 | 47 | 223 | 0.0 | 1.0 | 0.00 | 0.00 | 0.00 | 83 | 1009.9 |
| 20260508115057 | 47 | 207 | 3.0 | 3.0 | 0.00 | 0.00 | 0.00 | 83 | 1009.8 |
| 20260508114554 | 47 | 209 | 2.0 | 2.0 | 0.00 | 0.00 | 0.00 | 84 | 1009.8 |
| 20260508114050 | 47 | 209 | 3.0 | 3.0 | 0.00 | 0.00 | 0.00 | 85 | 1009.6 |
| 20260508113548 | 47 | 207 | 2.0 | 2.0 | 0.00 | 0.00 | 0.00 | 85 | 1009.8 |
| 20260508113046 | 47 | 213 | 1.0 | 2.0 | 0.00 | 0.00 | 0.00 | 85 | 1009.9 |
| 20260508112542 | 47 | 227 | 0.0 | 0.0 | 0.00 | 0.00 | 0.00 | 84 | 1009.7 |
| 20260508112039 | 46 | 210 | 1.0 | 1.0 | 0.00 | 0.00 | 0.00 | 84 | 1009.6 |
| 20260508111536 | 46 | 219 | 0.0 | 1.0 | 0.00 | 0.00 | 0.00 | 84 | 1009.4 |
| 20260508111033 | 47 | 219 | 1.0 | 1.0 | 0.00 | 0.00 | 0.00 | 83 | 1009.6 |
| 20260508110531 | 47 | 238 | 1.0 | 1.0 | 0.00 | 0.00 | 0.00 | 82 | 1009.8 |
| 20260508110026 | 47 | 254 | 1.0 | 2.0 | 0.00 | 0.00 | 0.00 | 82 | 1009.7 |
| 20260508105521 | 47 | 288 | 0.0 | 0.0 | 0.00 | 0.00 | 0.00 | 82 | 1009.7 |
| 20260508105019 | 47 | 248 | 1.0 | 1.0 | 0.00 | 0.00 | 0.00 | 81 | 1009.6 |
| 20260508104517 | 47 | 237 | 1.0 | 2.0 | 0.00 | 0.00 | 0.00 | 82 | 1009.6 |
| 20260508104013 | 47 | 240 | 1.0 | 1.0 | 0.00 | 0.00 | 0.00 | 82 | 1009.4 |
| 20260508103510 | 47 | 207 | 3.0 | 3.0 | 0.00 | 0.00 | 0.00 | 81 | 1009.5 |
| 20260508103008 | 47 | 261 | 2.0 | 3.0 | 0.00 | 0.00 | 0.00 | 81 | 1009.6 |
| 20260508102505 | 47 | 242 | 5.0 | 6.0 | 0.00 | 0.00 | 0.00 | 81 | 1009.5 |
| 20260508102003 | 47 | 224 | 4.0 | 5.0 | 0.00 | 0.00 | 0.00 | 82 | 1009.8 |
| 20260508101500 | 46 | 239 | 2.0 | 2.0 | 0.00 | 0.00 | 0.00 | 83 | 1009.9 |
| 20260508100956 | 46 | 253 | 3.0 | 3.0 | 0.00 | 0.00 | 0.00 | 84 | 1009.6 |
| 20260508100455 | 46 | 228 | 2.0 | 2.0 | 0.00 | 0.00 | 0.00 | 84 | 1009.5 |
| 20260508095951 | 46 | 232 | 3.0 | 3.0 | 0.00 | 0.00 | 0.00 | 84 | 1009.5 |
| 20260508095449 | 46 | 217 | 2.0 | 2.0 | 0.00 | 0.00 | 0.00 | 84 | 1009.5 |
| 20260508094946 | 46 | 236 | 2.0 | 2.0 | 0.00 | 0.00 | 0.00 | 83 | 1009.6 |
| 20260508094442 | 46 | 280 | 3.0 | 6.0 | 0.00 | 0.00 | 0.00 | 84 | 1009.2 |
| 20260508093939 | 46 | 260 | 7.0 | 8.0 | 0.00 | 0.00 | 0.00 | 85 | 1009.2 |
| 20260508093436 | 46 | 225 | 2.0 | 2.0 | 0.00 | 0.00 | 0.00 | 84 | 1009.5 |
| 20260508092934 | 45 | 244 | 3.0 | 3.0 | 0.00 | 0.00 | 0.00 | 82 | 1009.5 |
| 20260508092432 | 45 | 197 | 0.0 | 0.0 | 0.00 | 0.00 | 0.00 | 83 | 1009.6 |
| 20260508091930 | 45 | 219 | 2.0 | 3.0 | 0.00 | 0.00 | 0.00 | 83 | 1009.7 |
| 20260508091426 | 45 | 228 | 3.0 | 3.0 | 0.00 | 0.00 | 0.00 | 82 | 1009.7 |
| 20260508090924 | 45 | 218 | 1.0 | 2.0 | 0.00 | 0.00 | 0.00 | 82 | 1009.6 |
| 20260508090423 | 45 | 230 | 1.0 | 1.0 | 0.00 | 0.00 | 0.00 | 82 | 1010.0 |
| 20260508085918 | 45 | 244 | 1.0 | 1.0 | 0.00 | 0.00 | 0.00 | 82 | 1010.0 |
| 20260508085415 | 45 | 261 | 2.0 | 2.0 | 0.00 | 0.00 | 0.00 | 82 | 1009.8 |
| 20260508084911 | 45 | 210 | 3.0 | 3.0 | 0.00 | 0.00 | 0.00 | 82 | 1009.9 |
| 20260508084408 | 45 | 242 | 2.0 | 2.0 | 0.00 | 0.00 | 0.00 | 82 | 1009.8 |
| 20260508083906 | 45 | 228 | 3.0 | 6.0 | 0.00 | 0.00 | 0.00 | 83 | 1009.9 |
| 20260508083403 | 45 | 235 | 4.0 | 5.0 | 0.00 | 0.00 | 0.00 | 83 | 1009.8 |
| 20260508082902 | 45 | 242 | 0.0 | 1.0 | 0.00 | 0.00 | 0.00 | 84 | 1009.8 |
| 20260508082400 | 45 | 209 | 1.0 | 2.0 | 0.00 | 0.00 | 0.00 | 84 | 1009.8 |
| 20260508081858 | 45 | 202 | 3.0 | 3.0 | 0.00 | 0.00 | 0.00 | 84 | 1009.9 |
| 20260508081354 | 45 | 227 | 2.0 | 2.0 | 0.00 | 0.00 | 0.00 | 84 | 1009.7 |
| 20260508080851 | 44 | 195 | 2.0 | 2.0 | 0.00 | 0.00 | 0.00 | 85 | 1009.9 |
| 20260508080349 | 44 | 207 | 0.0 | 0.0 | 0.00 | 0.00 | 0.00 | 85 | 1010.0 |
| 20260508075845 | 45 | 209 | 0.0 | 0.0 | 0.00 | 0.00 | 0.00 | 85 | 1010.2 |
| 20260508075343 | 45 | 229 | 1.0 | 1.0 | 0.00 | 0.00 | 0.00 | 84 | 1010.0 |
| 20260508074840 | 45 | 209 | 1.0 | 1.0 | 0.00 | 0.00 | 0.00 | 84 | 1010.0 |
| 20260508074337 | 45 | 203 | 2.0 | 2.0 | 0.00 | 0.00 | 0.00 | 83 | 1009.9 |
| 20260508073834 | 46 | 212 | 3.0 | 5.0 | 0.00 | 0.00 | 0.00 | 83 | 1010.2 |
| 20260508073332 | 46 | 248 | 2.0 | 2.0 | 0.00 | 0.00 | 0.00 | 83 | 1010.1 |
| 20260508072828 | 46 | 232 | 1.0 | 2.0 | 0.00 | 0.00 | 0.00 | 82 | 1009.9 |
| 20260508072325 | 46 | 240 | 5.0 | 7.0 | 0.00 | 0.00 | 0.00 | 82 | 1010.1 |
| 20260508071822 | 46 | 237 | 2.0 | 3.0 | 0.00 | 0.00 | 0.00 | 82 | 1010.2 |
| 20260508071321 | 46 | 238 | 2.0 | 2.0 | 0.00 | 0.00 | 0.00 | 81 | 1010.1 |
| 20260508070818 | 47 | 222 | 2.0 | 3.0 | 0.00 | 0.00 | 0.00 | 81 | 1010.1 |
| 20260508070316 | 47 | 245 | 3.0 | 3.0 | 0.00 | 0.00 | 0.00 | 80 | 1010.4 |
| 20260508065813 | 47 | 224 | 3.0 | 3.0 | 0.00 | 0.00 | 0.00 | 80 | 1010.2 |
| 20260508065311 | 47 | 232 | 3.0 | 3.0 | 0.00 | 0.00 | 0.00 | 79 | 1010.2 |
| 20260508064809 | 47 | 263 | 4.0 | 5.0 | 0.00 | 0.00 | 0.00 | 78 | 1010.4 |
| 20260508064306 | 48 | 240 | 4.0 | 5.0 | 0.00 | 0.00 | 0.00 | 76 | 1010.1 |
| 20260508063803 | 48 | 216 | 5.0 | 6.0 | 0.00 | 0.00 | 0.00 | 70 | 1010.0 |
| 20260508063302 | 48 | 218 | 4.0 | 6.0 | 0.00 | 0.00 | 0.00 | 70 | 1010.1 |
| 20260508062759 | 48 | 216 | 2.0 | 2.0 | 0.00 | 0.00 | 0.00 | 71 | 1010.1 |
| 20260508062256 | 47 | 256 | 4.0 | 5.0 | 0.00 | 0.00 | 0.00 | 71 | 1010.0 |
| 20260508061753 | 47 | 205 | 1.0 | 2.0 | 0.00 | 0.00 | 0.00 | 72 | 1010.2 |
| 20260508061250 | 47 | 213 | 1.0 | 2.0 | 0.00 | 0.00 | 0.00 | 72 | 1010.1 |
| 20260508060746 | 47 | 194 | 1.0 | 2.0 | 0.00 | 0.00 | 0.00 | 73 | 1010.3 |
| 20260508060244 | 46 | 197 | 1.0 | 1.0 | 0.00 | 0.00 | 0.00 | 74 | 1010.1 |
| 20260508055739 | 46 | 200 | 1.0 | 1.0 | 0.00 | 0.00 | 0.00 | 74 | 1010.2 |
| 20260508055237 | 46 | 188 | 1.0 | 1.0 | 0.00 | 0.00 | 0.00 | 74 | 1010.0 |
| 20260508054733 | 46 | 192 | 0.0 | 0.0 | 0.00 | 0.00 | 0.00 | 73 | 1010.4 |
| 20260508054231 | 46 | 196 | 0.0 | 0.0 | 0.00 | 0.00 | 0.00 | 74 | 1010.3 |
| 20260508053728 | 46 | 192 | 2.0 | 2.0 | 0.00 | 0.00 | 0.00 | 74 | 1010.4 |
| 20260508053225 | 46 | 193 | 1.0 | 1.0 | 0.00 | 0.00 | 0.00 | 73 | 1010.7 |
| 20260508052722 | 46 | 195 | 2.0 | 2.0 | 0.00 | 0.00 | 0.00 | 73 | 1010.5 |
| 20260508052219 | 46 | 197 | 0.0 | 0.0 | 0.00 | 0.00 | 0.00 | 73 | 1010.7 |
| 20260508051715 | 46 | 215 | 0.0 | 0.0 | 0.00 | 0.00 | 0.00 | 74 | 1010.5 |
| 20260508051211 | 46 | 227 | 0.0 | 0.0 | 0.00 | 0.00 | 0.00 | 73 | 1010.8 |
| 20260508050708 | 47 | 211 | 0.0 | 0.0 | 0.00 | 0.00 | 0.00 | 73 | 1010.8 |
| 20260508050206 | 47 | 211 | 0.0 | 0.0 | 0.00 | 0.00 | 0.00 | 73 | 1010.7 |
| 20260508045700 | 47 | 211 | 0.0 | 0.0 | 0.00 | 0.00 | 0.00 | 72 | 1010.9 |
| 20260508045159 | 47 | 210 | 0.0 | 0.0 | 0.00 | 0.00 | 0.00 | 73 | 1010.7 |
| 20260508044656 | 47 | 205 | 0.0 | 0.0 | 0.00 | 0.00 | 0.00 | 72 | 1010.8 |
| 20260508044152 | 47 | 213 | 2.0 | 2.0 | 0.00 | 0.00 | 0.00 | 72 | 1010.5 |
| 20260508043648 | 47 | 209 | 1.0 | 2.0 | 0.00 | 0.00 | 0.00 | 72 | 1010.7 |
| 20260508043146 | 47 | 227 | 0.0 | 0.0 | 0.00 | 0.00 | 0.00 | 71 | 1010.8 |
| 20260508042642 | 47 | 221 | 0.0 | 0.0 | 0.00 | 0.00 | 0.00 | 71 | 1010.7 |
| 20260508042140 | 48 | 248 | 2.0 | 2.0 | 0.00 | 0.00 | 0.00 | 70 | 1010.5 |
| 20260508041636 | 48 | 220 | 1.0 | 2.0 | 0.00 | 0.00 | 0.00 | 70 | 1010.4 |
| 20260508041133 | 48 | 236 | 1.0 | 1.0 | 0.00 | 0.00 | 0.00 | 70 | 1010.8 |
| 20260508040629 | 48 | 236 | 1.0 | 1.0 | 0.00 | 0.00 | 0.00 | 69 | 1010.8 |
| 20260508040127 | 48 | 242 | 2.0 | 2.0 | 0.00 | 0.00 | 0.00 | 68 | 1011.0 |
| 20260508035624 | 48 | 243 | 2.0 | 2.0 | 0.00 | 0.00 | 0.00 | 68 | 1010.9 |
| 20260508035121 | 48 | 280 | 2.0 | 2.0 | 0.00 | 0.00 | 0.00 | 68 | 1010.8 |
| 20260508034618 | 48 | 238 | 3.0 | 3.0 | 0.00 | 0.00 | 0.00 | 68 | 1010.9 |
| 20260508034115 | 48 | 228 | 1.0 | 2.0 | 0.00 | 0.00 | 0.00 | 68 | 1011.0 |
| 20260508033613 | 48 | 240 | 3.0 | 5.0 | 0.00 | 0.00 | 0.00 | 68 | 1010.9 |
| 20260508033111 | 48 | 217 | 4.0 | 5.0 | 0.00 | 0.00 | 0.00 | 69 | 1011.0 |
| 20260508032607 | 47 | 251 | 3.0 | 3.0 | 0.00 | 0.00 | 0.00 | 69 | 1010.9 |
| 20260508032105 | 47 | 216 | 4.0 | 6.0 | 0.00 | 0.00 | 0.00 | 69 | 1011.0 |
| 20260508031602 | 47 | 235 | 1.0 | 2.0 | 0.00 | 0.00 | 0.00 | 70 | 1010.8 |
| 20260508031057 | 47 | 235 | 1.0 | 2.0 | 0.00 | 0.00 | 0.00 | 71 | 1011.0 |
| 20260508030554 | 46 | 236 | 2.0 | 2.0 | 0.00 | 0.00 | 0.00 | 70 | 1010.9 |
| 20260508030052 | 46 | 233 | 1.0 | 1.0 | 0.00 | 0.00 | 0.00 | 72 | 1011.1 |
| 20260508025548 | 45 | 223 | 2.0 | 2.0 | 0.00 | 0.00 | 0.00 | 72 | 1011.1 |
| 20260508025045 | 44 | 284 | 2.0 | 2.0 | 0.00 | 0.00 | 0.00 | 78 | 1011.1 |
| 20260508024541 | 43 | 345 | 0.0 | 1.0 | 0.00 | 0.00 | 0.00 | 85 | 1011.1 |
| 20260508024038 | 42 | 333 | 0.0 | 0.0 | 0.00 | 0.00 | 0.00 | 88 | 1011.1 |
| 20260508023534 | 42 | 332 | 0.0 | 0.0 | 0.00 | 0.00 | 0.00 | 88 | 1011.0 |
| 20260508023032 | 43 | 335 | 0.0 | 0.0 | 0.00 | 0.00 | 0.00 | 87 | 1010.8 |
| 20260508022528 | 43 | 324 | 0.0 | 0.0 | 0.00 | 0.00 | 0.00 | 86 | 1010.5 |
| 20260508022025 | 43 | 324 | 0.0 | 0.0 | 0.00 | 0.00 | 0.00 | 85 | 1011.0 |